This is the latest recevied weather packets stored in our database for station/object IONIA-WX. If no packets are shown the sender has not sent any weather packets the latest 1 day(s).
| Time | Temp. | Humidity | Pressure | Rain* | Wind** | Luminosity | Snow |
|---|---|---|---|---|---|---|---|
| 1778075119 | 6.11° C | 77% | 982.4 hPa | 0 mm | - | - | - |
| 1778071523 | 5° C | 76% | 981.7 hPa | 0 mm | - | - | - |
| 1778068849 | 3.89° C | 76% | 981.7 hPa | 0 mm | - | - | - |
| 1778067922 | 3.33° C | 75% | 980.8 hPa | 0 mm | - | - | - |
| 1778066120 | 2.78° C | 77% | 980.9 hPa | 0 mm | - | - | - |
| 1778065245 | 2.78° C | 77% | 980.9 hPa | 0 mm | - | - | - |
| 1778060720 | 3.33° C | 71% | 979.9 hPa | 0 mm | - | - | - |
| 1778058047 | 3.33° C | 71% | 979.9 hPa | 0 mm | - | - | - |
| 1778057120 | 3.89° C | 68% | 979.4 hPa | 0 mm | - | - | - |
| 1778051719 | 5° C | 69% | 980 hPa | 0 mm | - | - | - |
| 1778049036 | 5.56° C | 69% | 980.2 hPa | 0 mm | - | - | - |
| 1778047247 | 5.56° C | 69% | 980.2 hPa | 0 mm | - | - | - |
| 1778046320 | 5.56° C | 65% | 980.7 hPa | 0 mm | - | - | - |
| 1778045434 | 5.56° C | 66% | 980.6 hPa | 0 mm | - | - | - |
| 1778043648 | 6.11° C | 66% | 980.6 hPa | 0 mm | - | - | - |
| 1778042720 | 6.11° C | 64% | 980.9 hPa | 0 mm | - | - | - |
| 1778041834 | 6.11° C | 65% | 980.5 hPa | 0 mm | - | - | - |
| 1778040049 | 6.67° C | 65% | 980.5 hPa | 0 mm | - | - | - |
| 1778037319 | 6.67° C | 63% | 980 hPa | 0 mm | - | - | - |
| 1778035519 | 7.22° C | 59% | 980.2 hPa | 0 mm | - | - | - |
| 1778034637 | 7.22° C | 58% | 980.2 hPa | 0 mm | - | - | - |
| 1778032838 | 7.22° C | 58% | 980.2 hPa | 0 mm | - | - | - |
| 1778030119 | 7.78° C | 58% | 980 hPa | 0 mm | - | - | - |
| 1778028318 | 9.44° C | 47% | 979.7 hPa | 0 mm | - | - | - |
| 1778027432 | 9.44° C | 41% | 980.2 hPa | 0 mm | - | - | - |
* Rain latest hour (hover to see other rain measurements)
** Current wind speed in m/s (hover to see current wind gust speed)